Regional Weather Roundup
Issued by NWS Charleston, SC

Current Version | Previous Version | Text Only | Print | Product List | Glossary Off
Versions: 1 2 3 4 5 6 7 8 9 10 11 12 13 14 15 16 17 18 19 20 21 22 23 24 25 26 27 28 29 30 31 32 33 34 35 36 37 38 39 40 41 42 43 44 45 46 47 48 49 50

000
ASUS42 KCHS 260627
RWRCHS

REGIONAL WEATHER ROUNDUP
NATIONAL WEATHER SERVICE CHARLESTON SC
200 AM EDT SUN MAR 26 2017

NOTE: "FAIR" INDICATES FEW OR NO CLOUDS BELOW 12,000 FEET WITH NO
SIGNIFICANT WEATHER AND/OR OBSTRUCTIONS TO VISIBILITY.

NOT ALL STATIONS ARE QUALITY CONTROLLED. USE DATA WITH CAUTION...
ESPECIALLY DEWPOINT OBSERVATIONS.

SCZ027-030-031-034>040-042>050-260700-
...SOUTHEAST SOUTH CAROLINA...

CITY           SKY/WX    TMP DP  RH WIND       PRES   REMARKS
N CHARLESTON   MOCLDY    62  58  86 SE9       30.20F
6HR MIN TEMP:  57; 6HR MAX TEMP:  65;

WATERFRONT PRK   N/A     62  60  93 VRB3      30.21S
JOHNS ISLAND   CLOUDY    61  57  88 CALM      30.20F
PINOPOLIS        N/A     59  57  94 CALM      30.12F
MONCKS CORNER  FAIR      59  55  88 CALM      30.20F
SUMMERVILLE    FAIR      54  52  94 CALM      30.21F
BEAUFORT MCAS  PTCLDY    59  58  96 CALM      30.19F
6HR MIN TEMP:  57; 6HR MAX TEMP:  67;

BEAUFORT ARPT  FAIR      61  57  88 SE3       30.18F
HILTON HEAD IS PTCLDY    63  61  94 SE3       30.19F
WALTERBORO     PTCLDY    55  54  94 CALM      30.20F
ALLENDALE      FAIR      59  55  88 CALM      30.19R

...SOUTHERN MIDLANDS AND PEE DEE...

CITY           SKY/WX    TMP DP  RH WIND       PRES   REMARKS
GEORGETOWN     CLOUDY    55  55 100 CALM      30.22F
KINGSTREE      CLOUDY    55  52  88 E3        30.21F
ORANGEBURG     CLOUDY    59  55  87 SE5       30.19F
6HR MIN TEMP:  59; 6HR MAX TEMP:  68;

BARNWELL       FAIR      57  55  94 CALM      30.20R
AIKEN          FAIR      55  52  88 SE5       30.23S
MANNING        FAIR      54  52  94 CALM      30.20F
COLUMBIA       CLOUDY    60  53  77 CALM      30.19F
6HR MIN TEMP:  60; 6HR MAX TEMP:  72;

SUMTER         PTCLDY    57  54  88 CALM      30.18F
6HR MIN TEMP:  57; 6HR MAX TEMP:  68;

FLORENCE       CLOUDY    59  55  87 SE3       30.22S
6HR MIN TEMP:  58; 6HR MAX TEMP:  68;

MYRTLE BEACH   PTCLDY    61  55  82 S8        30.23F
N MYRTLE BEACH PTCLDY    61  58  90 SE6       30.22F
6HR MIN TEMP:  54; 6HR MAX TEMP:  65;


$$

GAZ063-065-086>088-099>101-113>116-118-119-134>141-150-260700-
...SOUTHEAST GEORGIA...

CITY           SKY/WX    TMP DP  RH WIND       PRES   REMARKS
SAVANNAH ARPT  PTCLDY    63  55  75 SE8       30.18F
6HR MIN TEMP:  61; 6HR MAX TEMP:  68;

HUNTER AAF     MOCLDY    62  58  86 SE7       30.16F
6HR MIN TEMP:  60; 6HR MAX TEMP:  67;

FORT STEWART   CLOUDY    60  56  89 SE5       30.15F
6HR MIN TEMP:  60; 6HR MAX TEMP:  67;

STATESBORO     CLEAR     57  57 100 CALM      30.19R
SYLVANIA       PTCLDY   N/A N/A N/A CALM      30.19S
CLAXTON        FAIR     N/A N/A N/A CALM      30.19R

...CSRA...CENTRAL AND FAR SOUTHEAST GEORGIA...

CITY           SKY/WX    TMP DP  RH WIND       PRES   REMARKS
THOMSON        PTCLDY    60  53  77 S5        30.22F
AUGUSTA-BUSH   CLEAR     61  54  77 SE3       30.19R
6HR MIN TEMP:  60; 6HR MAX TEMP:  72;

AUGUSTA-DANIEL CLEAR     63  52  67 S7        30.19S
SWAINSBORO     MOCLDY    61  55  82 SE3       30.19S
VIDALIA        CLOUDY    64  59  82 SE5       30.18S
EASTMAN        MOCLDY    65  51  59 SE7       30.18F
HAZLEHURST     FAIR      64  61  88 S3        30.16F
ALMA           CLOUDY    62  59  90 CALM      30.17S
6HR MIN TEMP:  62; 6HR MAX TEMP:  71;

WAYCROSS       CLOUDY    66  64  94 CALM      30.17S
JESUP          FAIR      59  55  88 CALM      30.18R
BAXLEY         CLOUDY    63  63 100 CALM      30.17F
BRUNSWICK      PTCLDY    66  63  88 SE6       30.17S
SAINT SIMONS   PTCLDY    66  60  81 SE10      30.16F
6HR MIN TEMP:  65; 6HR MAX TEMP:  67;


$$

SCZ027-028-034-036>038-045-046-048>050-GAZ119-141-260700-
...LAKE AND SUPPLEMENTAL COASTAL OBSERVATIONS...

STATION/POSITION TIME  TEMP    WIND        PRES    WAVE   SWELL
                       AIR SEA DIR/SP/G            HT/PER HT/PER/DIR
                 (UTC) (F)     (DEG/KT/KT) (MB)    (FT/S) (FT/S/D)
WINYAH BAY       0545   63     140/  7     1023.0S
LAKE MURRAY      0550   62     150/  5/  9 1021.7S
ACE BASIN NERRS  0530   60        CALM     1023.0S
FORT PULASKI     0600   65 62  140/  6/  9 1022.3
SAPELO ISLAND    0600   64     120/  5     1022.0

$$

ANZ835-935-AMZ111-154-330-350-352-354-370-450-454-472-260700-
...C-MAN AND BUOY OBSERVATIONS...

STATION/POSITION TIME  TEMP    WIND        PRES    WAVE   SWELL
                       AIR SEA DIR/SP/G            HT/PER HT/PER/DIR
                 (UTC) (F)     (DEG/KT/KT) (MB)    (FT/S) (FT/S/D)
BUOY 41004       0550   70 70  160/ 12/ 14 1022.8F   5/ 8   3/120/ 8
BUOY 41008       0550   64 62  100/  6/  8 1021.7F   3/ 8   3/100/ 8
FOLLY BEACH CMAN 0600   63     130/  8/  8 1023.3F
CAPERS NEARSHORE 0608   63     130/  6/ 12 1022.8F
FRIPP NEARSHORE  0608   63 61  130/  8/ 10 1022.0F


STATION/POSITION TIME  TEMP    WIND        PRES    WAVE   SWELL
                       AIR SEA DIR/SP/G            HT/PER HT/PER/DIR
                 (UTC) (F)     (DEG/KT/KT) (MB)    (FT/S) (FT/S/D)
5E ST. MARYS GA  0600      64                N/A     4/ 9
FRYING PAN BUOY  0610   70 73  140/ 14/ 17 1023.5
BUOY 41025       0550   69 76  180/ 16/ 19 1024.7F   3/ 5   2/140/ 9
CAPE LOOKOUT NC  0600   65     170/ 11/ 15 1024.0F
BUOY 41002       0550   67 72  100/ 12/ 16 1024.8F   4/ 8   3/150/ 8
BUOY 41010       NOT AVBL
ST AUGUSTINE FL  0600   67 67  140/ 10/ 11 1021.8F


$$




USA.gov is the U.S. government's official web portal to all federal, state and local government web resources and services.